Change the Weather History Date:

Wednesday, December 4, 2013

  Actual Average Record
Temperature  
Mean Temperature 37 °F 29 °F  
Max Temperature 42 °F 35 °F 61 °F (1961)
Min Temperature 31 °F 23 °F 0 °F (1935)
Degree Days  
Heating Degree Days 28 36  
Month to date heating degree days 147 142  
Since 1 July heating degree days 2015 1965  
Moisture  
Dew Point 35 °F    
Average Humidity 96    
Maximum Humidity 100    
Minimum Humidity 92    
Precipitation  
Precipitation 0.47 in 0.07 in 0.61 in (1973)
Month to date precipitation 0.59 0.26  
Year to date precipitation 30.06 26.67  
Snow  
Snow 0.70 in 0.60 in 4.00 in (1970)
Month to date snowfall 2.4 2.2  
Since 1 July snowfall 5.0 10.3  
Snow Depth 3.00 in    
Sea Level Pressure  
Sea Level Pressure 29.85 in    
Wind  
Wind Speed 10 mph (East)    
Max Wind Speed 20 mph    
Max Gust Speed 25 mph    
Visibility 2 miles    
Events Fog , Rain , Snow    
T = Trace of Precipitation, MM = Missing Value Source: NWS Daily Summary

Daily Weather History Graph

Daily Weather History Graph

Search for Another Location

Airport or City:

Trip Planner

Search our weather history database for the weather conditions in past years. The results will help you decide how hot, cold, wet, or windy it might be!

Date:

Astronomy

Dec. 04, 2013 Rise Set
Actual Time 7:56 AM EST 4:52 PM EST
Civil Twilight 7:22 AM EST 5:26 PM EST
Nautical Twilight 6:45 AM EST 6:03 PM EST
Astronomical Twilight 6:10 AM EST 6:38 PM EST
Moon 9:21 AM EST (12/4) 7:04 PM EST (12/4)
Length of Visible Light 10h 03m
Length of Day
8h 56m
Waxing Crescent, 4% of the Moon is Illuminated
Dec 4
Waxing Crescent
Dec 9
First Quarter
Dec 17
Full
Dec 25
Last Quarter
Jan 1
New

Hourly Weather History & Observations

Time (EST) Temp. Windchill Dew Point Humidity Pressure Visibility Wind Dir Wind Speed Gust Speed Precip Events Conditions
12:15 AM 30.9 °F 22.8 °F 30.0 °F 96% 29.94 in 1.0 mi East 9.2 mph - 0.03 in Snow Light Snow
12:54 AM 30.9 °F 22.8 °F 30.0 °F 96% 29.96 in 1.0 mi East 9.2 mph - 0.07 in Snow Light Snow
1:31 AM 32.0 °F 25.6 °F 30.9 °F 96% 29.94 in 2.5 mi East 6.9 mph - 0.02 in Snow Light Snow
1:54 AM 32.0 °F 23.6 °F 30.9 °F 96% 29.96 in 1.5 mi East 10.4 mph - 0.04 in Snow Light Snow
2:06 AM 32.0 °F 23.0 °F 30.9 °F 96% 29.93 in 0.8 mi East 11.5 mph - 0.02 in Snow Light Snow
2:15 AM 32.0 °F 23.0 °F 30.9 °F 96% 29.92 in 1.5 mi East 11.5 mph - 0.03 in Snow Light Snow
2:28 AM 32.0 °F 22.5 °F 30.9 °F 96% 29.92 in 2.0 mi East 12.7 mph - 0.04 in Snow Light Snow
2:37 AM 32.0 °F 24.2 °F 30.9 °F 96% 29.93 in 1.5 mi East 9.2 mph - 0.05 in Snow Light Snow
2:54 AM 32.0 °F 24.2 °F 30.9 °F 96% 29.96 in 1.5 mi East 9.2 mph - 0.06 in Snow Light Snow
3:12 AM 32.0 °F 24.8 °F 30.9 °F 96% 29.93 in 2.5 mi East 8.1 mph - 0.00 in Snow Light Snow
3:21 AM 32.0 °F 23.6 °F 30.9 °F 96% 29.92 in 4.0 mi East 10.4 mph - 0.01 in Snow Light Snow
3:49 AM 32.0 °F 24.2 °F 32.0 °F 100% 29.93 in 1.8 mi East 9.2 mph - 0.01 in Snow Light Snow
3:54 AM 32.0 °F 25.6 °F 32.0 °F 100% 29.96 in 2.0 mi East 6.9 mph - 0.01 in Snow Light Snow
4:04 AM 32.0 °F 24.8 °F 32.0 °F 100% 29.92 in 4.0 mi East 8.1 mph - 0.00 in Snow Light Snow
4:54 AM 33.1 °F 27.7 °F 32.0 °F 96% 29.95 in 9.0 mi East 5.8 mph - 0.01 in   Overcast
5:54 AM 33.1 °F 26.9 °F 32.0 °F 96% 29.96 in 4.0 mi ENE 6.9 mph - 0.00 in   Overcast
6:15 AM 33.1 °F 26.9 °F 32.0 °F 96% 29.93 in 4.0 mi NE 6.9 mph - N/A   Overcast
6:54 AM 33.1 °F 26.9 °F 33.1 °F 100% 29.96 in 4.0 mi ENE 6.9 mph - N/A   Overcast
7:54 AM 33.1 °F 28.7 °F 33.1 °F 100% 29.96 in 5.0 mi ENE 4.6 mph - N/A   Overcast
8:41 AM 33.1 °F 28.7 °F 33.1 °F 100% 29.94 in 3.0 mi NNE 4.6 mph - 0.00 in Rain Light Rain
8:54 AM 34.0 °F 28.8 °F 33.1 °F 96% 29.96 in 3.0 mi ENE 5.8 mph - 0.00 in   Overcast
9:09 AM 34.0 °F 28.0 °F 33.1 °F 96% 29.92 in 2.5 mi ENE 6.9 mph - N/A   Overcast
9:44 AM 34.0 °F 28.8 °F 34.0 °F 100% 29.92 in 3.0 mi ENE 5.8 mph - N/A   Overcast
9:54 AM 34.0 °F 28.8 °F 34.0 °F 100% 29.95 in 4.0 mi ENE 5.8 mph - N/A   Overcast
10:05 AM 35.1 °F 30.1 °F 34.0 °F 96% 29.92 in 4.0 mi East 5.8 mph - N/A   Overcast
10:54 AM 35.1 °F 29.3 °F 35.1 °F 100% 29.94 in 2.5 mi East 6.9 mph - N/A   Overcast
11:54 AM 36.0 °F 30.3 °F 35.1 °F 97% 29.93 in 2.0 mi East 6.9 mph - N/A   Overcast
12:02 PM 36.0 °F 31.1 °F 36.0 °F 100% 29.90 in 1.2 mi East 5.8 mph - N/A   Overcast
12:54 PM 36.0 °F 30.3 °F 36.0 °F 100% 29.88 in 1.0 mi East 6.9 mph - 0.01 in   Overcast
1:16 PM 36.0 °F 29.6 °F 36.0 °F 100% 29.86 in 0.8 mi East 8.1 mph - N/A   Overcast
1:40 PM 36.0 °F 28.5 °F 36.0 °F 100% 29.83 in 0.2 mi East 10.4 mph - N/A Fog Fog
1:54 PM 36.0 °F 30.3 °F 36.0 °F 100% 29.86 in 0.2 mi East 6.9 mph - N/A Fog Fog
2:54 PM 37.0 °F 29.8 °F 37.0 °F 100% 29.85 in 0.2 mi ESE 10.4 mph - N/A Fog Fog
3:54 PM 37.0 °F 29.8 °F 37.0 °F 100% 29.83 in 0.2 mi ESE 10.4 mph - N/A Fog Fog
4:20 PM 37.0 °F 28.5 °F 37.0 °F 100% 29.80 in 0.8 mi ESE 13.8 mph - N/A   Overcast
4:31 PM 37.0 °F 28.5 °F 37.0 °F 100% 29.79 in 1.2 mi ESE 13.8 mph - N/A   Overcast
4:54 PM 37.0 °F 27.7 °F 37.0 °F 100% 29.80 in 2.5 mi East 16.1 mph - N/A   Overcast
5:54 PM 37.9 °F 30.0 °F 37.0 °F 97% 29.78 in 2.5 mi ESE 12.7 mph - N/A   Overcast
6:54 PM 37.9 °F 30.0 °F 37.9 °F 100% 29.75 in 2.5 mi ESE 12.7 mph - N/A   Overcast
7:54 PM 39.0 °F 30.3 °F 37.9 °F 96% 29.70 in 2.5 mi East 16.1 mph - 0.00 in   Overcast
8:33 PM 39.0 °F 31.8 °F 37.9 °F 96% 29.67 in 1.5 mi SE 11.5 mph 18.4 mph 0.07 in Rain Heavy Rain
8:54 PM 39.0 °F 30.6 °F 39.0 °F 100% 29.66 in 1.8 mi ESE 15.0 mph - 0.17 in Rain Rain
9:12 PM 39.0 °F 31.0 °F 39.0 °F 100% 29.62 in 2.0 mi SE 13.8 mph - 0.06 in Rain Light Rain
9:43 PM 39.0 °F 29.3 °F 39.0 °F 100% 29.59 in 1.5 mi ESE 19.6 mph 23.0 mph 0.08 in Rain Light Rain
9:54 PM 39.0 °F 29.6 °F 39.0 °F 100% 29.61 in 1.8 mi SE 18.4 mph - 0.09 in Rain Light Rain
10:24 PM 39.9 °F 31.8 °F 39.9 °F 100% 29.57 in 2.0 mi SE 15.0 mph - 0.01 in Rain Light Rain
10:43 PM 41.0 °F 33.9 °F 39.9 °F 96% 29.55 in 3.0 mi SSE 12.7 mph - 0.01 in   Overcast
10:54 PM 41.0 °F 34.3 °F 41.0 °F 100% 29.56 in 2.5 mi SE 11.5 mph - 0.01 in   Overcast
11:54 PM 42.1 °F 34.2 °F 41.0 °F 96% 29.51 in 2.0 mi SSE 16.1 mph - 0.01 in   Overcast